Time,TemperatureF,DewpointF,PressureIn,WindDirection,WindDirectionDegrees,WindSpeedMPH,WindSpeedGustMPH,Humidity,HourlyPrecipIn,Conditions,Clouds,dailyrainin,SoftwareType,DateUTC
2013-08-31 00:03:00,67.0,56.9,29.85,North,0,0.0,0.0,70,0.00,,,0.00,WUHU216HW,2013-08-31 07:03:00,
2013-08-31 00:08:00,66.6,56.5,29.85,North,0,0.0,0.0,70,0.00,,,0.00,WUHU216HW,2013-08-31 07:08:00,
2013-08-31 00:14:00,66.4,56.3,29.85,North,0,0.0,0.0,70,0.00,,,0.00,WUHU216HW,2013-08-31 07:14:00,
2013-08-31 00:19:00,66.2,56.2,29.85,North,0,0.0,0.0,70,0.00,,,0.00,WUHU216HW,2013-08-31 07:19:00,
2013-08-31 00:24:00,66.1,56.0,29.85,North,0,0.0,0.0,70,0.00,,,0.00,WUHU216HW,2013-08-31 07:24:00,
2013-08-31 00:29:00,65.9,55.8,29.85,North,0,0.0,0.0,70,0.00,,,0.00,WUHU216HW,2013-08-31 07:29:00,
2013-08-31 00:34:00,65.9,55.8,29.85,North,0,0.0,0.0,70,0.00,,,0.00,WUHU216HW,2013-08-31 07:34:00,
2013-08-31 00:39:00,65.7,55.7,29.85,North,0,0.0,0.0,70,0.00,,,0.00,WUHU216HW,2013-08-31 07:39:00,
2013-08-31 00:44:00,65.5,55.5,29.85,North,0,0.0,0.0,70,0.00,,,0.00,WUHU216HW,2013-08-31 07:44:00,
2013-08-31 00:49:00,65.5,55.5,29.85,North,0,0.0,0.0,70,0.00,,,0.00,WUHU216HW,2013-08-31 07:49:00,
2013-08-31 00:54:00,65.3,55.7,29.85,North,0,0.0,0.0,71,0.00,,,0.00,WUHU216HW,2013-08-31 07:54:00,
2013-08-31 00:59:00,65.2,55.5,29.85,North,0,0.0,0.0,71,0.00,,,0.00,WUHU216HW,2013-08-31 07:59:00,
2013-08-31 01:04:00,65.0,55.4,29.85,North,0,0.0,0.0,71,0.00,,,0.00,WUHU216HW,2013-08-31 08:04:00,
2013-08-31 01:09:00,65.0,55.4,29.85,North,0,0.0,0.0,71,0.00,,,0.00,WUHU216HW,2013-08-31 08:09:00,
2013-08-31 01:14:00,64.8,55.6,29.85,North,0,0.0,0.0,72,0.00,,,0.00,WUHU216HW,2013-08-31 08:14:00,
2013-08-31 01:19:00,64.6,55.5,29.84,North,0,0.0,0.0,72,0.00,,,0.00,WUHU216HW,2013-08-31 08:19:00,
2013-08-31 01:24:00,64.4,55.3,29.84,North,0,0.0,0.0,72,0.00,,,0.00,WUHU216HW,2013-08-31 08:24:00,
2013-08-31 01:29:00,64.4,55.6,29.84,North,0,0.0,0.0,73,0.00,,,0.00,WUHU216HW,2013-08-31 08:29:00,
2013-08-31 01:35:00,64.3,55.4,29.84,North,0,0.0,0.0,73,0.00,,,0.00,WUHU216HW,2013-08-31 08:35:00,
2013-08-31 01:40:00,64.1,55.3,29.84,North,0,0.0,0.0,73,0.00,,,0.00,WUHU216HW,2013-08-31 08:40:00,
2013-08-31 01:45:00,64.1,55.3,29.84,North,0,0.0,0.0,73,0.00,,,0.00,WUHU216HW,2013-08-31 08:45:00,
2013-08-31 01:50:00,63.9,55.1,29.84,North,0,0.0,0.0,73,0.00,,,0.00,WUHU216HW,2013-08-31 08:50:00,
2013-08-31 01:55:00,63.7,54.9,29.83,North,0,0.0,0.0,73,0.00,,,0.00,WUHU216HW,2013-08-31 08:55:00,
2013-08-31 02:00:00,63.7,54.9,29.83,North,0,0.0,0.0,73,0.00,,,0.00,WUHU216HW,2013-08-31 09:00:00,
2013-08-31 02:05:00,63.5,55.1,29.83,North,0,0.0,0.0,74,0.00,,,0.00,WUHU216HW,2013-08-31 09:05:00,
2013-08-31 02:10:00,63.4,54.9,29.83,North,0,0.0,0.0,74,0.00,,,0.00,WUHU216HW,2013-08-31 09:10:00,
2013-08-31 02:15:00,63.4,54.9,29.83,North,0,0.0,0.0,74,0.00,,,0.00,WUHU216HW,2013-08-31 09:15:00,
2013-08-31 02:20:00,63.2,54.7,29.83,North,0,0.0,0.0,74,0.00,,,0.00,WUHU216HW,2013-08-31 09:20:00,
2013-08-31 02:25:00,63.2,55.1,29.83,North,0,0.0,0.0,75,0.00,,,0.00,WUHU216HW,2013-08-31 09:25:00,
2013-08-31 02:30:00,63.0,54.9,29.83,North,0,0.0,0.0,75,0.00,,,0.00,WUHU216HW,2013-08-31 09:30:00,
2013-08-31 02:35:00,62.8,54.7,29.83,North,0,0.0,0.0,75,0.00,,,0.00,WUHU216HW,2013-08-31 09:35:00,
2013-08-31 02:40:00,62.8,54.7,29.83,North,0,0.0,0.0,75,0.00,,,0.00,WUHU216HW,2013-08-31 09:40:00,
2013-08-31 02:45:00,62.6,54.5,29.83,North,0,0.0,0.0,75,0.00,,,0.00,WUHU216HW,2013-08-31 09:45:00,
2013-08-31 02:50:00,62.5,54.4,29.83,North,0,0.0,0.0,75,0.00,,,0.00,WUHU216HW,2013-08-31 09:50:00,
2013-08-31 02:55:00,62.3,54.2,29.83,North,0,0.0,0.0,75,0.00,,,0.00,WUHU216HW,2013-08-31 09:55:00,
2013-08-31 03:00:00,62.3,54.2,29.83,North,0,0.0,0.0,75,0.00,,,0.00,WUHU216HW,2013-08-31 10:00:00,
2013-08-31 03:05:00,62.1,54.1,29.83,North,0,0.0,0.0,75,0.00,,,0.00,WUHU216HW,2013-08-31 10:05:00,
2013-08-31 03:10:00,62.1,54.1,29.83,North,0,0.0,0.0,75,0.00,,,0.00,WUHU216HW,2013-08-31 10:10:00,
2013-08-31 03:15:00,61.9,54.3,29.82,North,0,0.0,0.0,76,0.00,,,0.00,WUHU216HW,2013-08-31 10:15:00,
2013-08-31 03:20:00,61.9,54.3,29.83,North,0,0.0,0.0,76,0.00,,,0.00,WUHU216HW,2013-08-31 10:20:00,
2013-08-31 03:25:00,61.7,54.1,29.82,North,0,0.0,0.0,76,0.00,,,0.00,WUHU216HW,2013-08-31 10:25:00,
2013-08-31 03:30:00,61.7,54.1,29.82,North,0,0.0,0.0,76,0.00,,,0.00,WUHU216HW,2013-08-31 10:30:00,
2013-08-31 03:35:00,61.6,53.9,29.82,North,0,0.0,0.0,76,0.00,,,0.00,WUHU216HW,2013-08-31 10:35:00,
2013-08-31 03:41:00,61.6,53.9,29.82,North,0,0.0,0.0,76,0.00,,,0.00,WUHU216HW,2013-08-31 10:41:00,
2013-08-31 03:46:00,61.4,53.7,29.82,North,0,0.0,0.0,76,0.00,,,0.00,WUHU216HW,2013-08-31 10:46:00,
2013-08-31 03:51:00,61.2,53.7,29.83,North,0,0.0,0.0,76,0.00,,,0.00,WUHU216HW,2013-08-31 10:51:00,
2013-08-31 03:56:00,61.0,53.5,29.82,North,0,0.0,0.0,76,0.00,,,0.00,WUHU216HW,2013-08-31 10:56:00,
2013-08-31 04:01:00,60.8,53.6,29.83,North,0,0.0,0.0,77,0.00,,,0.00,WUHU216HW,2013-08-31 11:01:00,
2013-08-31 04:06:00,60.8,53.6,29.82,North,0,0.0,0.0,77,0.00,,,0.00,WUHU216HW,2013-08-31 11:06:00,
2013-08-31 04:11:00,60.7,53.5,29.83,North,0,0.0,0.0,77,0.00,,,0.00,WUHU216HW,2013-08-31 11:11:00,
2013-08-31 04:16:00,60.5,53.3,29.83,North,0,0.0,0.0,77,0.00,,,0.00,WUHU216HW,2013-08-31 11:16:00,
2013-08-31 04:21:00,60.5,53.3,29.83,North,0,0.0,0.0,77,0.00,,,0.00,WUHU216HW,2013-08-31 11:21:00,
2013-08-31 04:26:00,60.3,53.1,29.83,North,0,0.0,0.0,77,0.00,,,0.00,WUHU216HW,2013-08-31 11:26:00,
2013-08-31 04:31:00,60.3,53.1,29.83,North,0,0.0,0.0,77,0.00,,,0.00,WUHU216HW,2013-08-31 11:31:00,
2013-08-31 04:36:00,60.1,53.3,29.83,North,0,0.0,0.0,78,0.00,,,0.00,WUHU216HW,2013-08-31 11:36:00,
2013-08-31 04:41:00,60.1,53.3,29.82,North,0,0.0,0.0,78,0.00,,,0.00,WUHU216HW,2013-08-31 11:41:00,
2013-08-31 04:46:00,60.1,53.3,29.82,North,0,0.0,0.0,78,0.00,,,0.00,WUHU216HW,2013-08-31 11:46:00,
2013-08-31 04:51:00,59.9,53.1,29.83,North,0,0.0,0.0,78,0.00,,,0.00,WUHU216HW,2013-08-31 11:51:00,
2013-08-31 04:56:00,59.8,52.6,29.83,North,0,0.0,0.0,77,0.00,,,0.00,WUHU216HW,2013-08-31 11:56:00,
2013-08-31 05:01:00,59.8,52.9,29.83,North,0,0.0,0.0,78,0.00,,,0.00,WUHU216HW,2013-08-31 12:01:00,
2013-08-31 05:06:00,59.6,52.7,29.83,North,0,0.0,0.0,78,0.00,,,0.00,WUHU216HW,2013-08-31 12:06:00,
2013-08-31 05:11:00,59.6,52.7,29.83,North,0,0.0,0.0,78,0.00,,,0.00,WUHU216HW,2013-08-31 12:11:00,
2013-08-31 05:16:00,59.4,52.6,29.83,North,0,0.0,0.0,78,0.00,,,0.00,WUHU216HW,2013-08-31 12:16:00,
2013-08-31 05:21:00,59.4,52.6,29.83,North,0,0.0,0.0,78,0.00,,,0.00,WUHU216HW,2013-08-31 12:21:00,
2013-08-31 05:26:00,59.4,52.2,29.83,North,0,0.0,0.0,77,0.00,,,0.00,WUHU216HW,2013-08-31 12:26:00,
2013-08-31 05:31:00,59.4,52.6,29.83,North,0,0.0,0.0,78,0.00,,,0.00,WUHU216HW,2013-08-31 12:31:00,
2013-08-31 05:36:00,59.2,52.4,29.83,North,0,0.0,0.0,78,0.00,,,0.00,WUHU216HW,2013-08-31 12:36:00,
2013-08-31 05:41:00,59.2,52.4,29.83,North,0,0.0,0.0,78,0.00,,,0.00,WUHU216HW,2013-08-31 12:41:00,
2013-08-31 05:47:00,59.0,52.2,29.83,North,0,0.0,0.0,78,0.00,,,0.00,WUHU216HW,2013-08-31 12:47:00,
2013-08-31 05:52:00,59.0,52.2,29.83,North,0,0.0,0.0,78,0.00,,,0.00,WUHU216HW,2013-08-31 12:52:00,
2013-08-31 05:57:00,59.0,52.2,29.83,North,0,0.0,0.0,78,0.00,,,0.00,WUHU216HW,2013-08-31 12:57:00,
2013-08-31 06:02:00,58.9,52.4,29.83,North,0,0.0,0.0,79,0.00,,,0.00,WUHU216HW,2013-08-31 13:02:00,
2013-08-31 06:07:00,58.7,52.2,29.84,North,0,0.0,0.0,79,0.00,,,0.00,WUHU216HW,2013-08-31 13:07:00,
2013-08-31 06:12:00,58.7,52.2,29.84,North,0,0.0,0.0,79,0.00,,,0.00,WUHU216HW,2013-08-31 13:12:00,
2013-08-31 06:17:00,58.7,52.2,29.84,North,0,0.0,0.0,79,0.00,,,0.00,WUHU216HW,2013-08-31 13:17:00,
2013-08-31 06:22:00,58.7,52.2,29.84,North,0,0.0,0.0,79,0.00,,,0.00,WUHU216HW,2013-08-31 13:22:00,
2013-08-31 06:27:00,58.5,52.0,29.84,North,0,0.0,0.0,79,0.00,,,0.00,WUHU216HW,2013-08-31 13:27:00,
2013-08-31 06:32:00,58.3,51.8,29.85,North,0,0.0,0.0,79,0.00,,,0.00,WUHU216HW,2013-08-31 13:32:00,
2013-08-31 06:37:00,58.3,51.8,29.84,North,0,0.0,0.0,79,0.00,,,0.00,WUHU216HW,2013-08-31 13:37:00,
2013-08-31 06:42:00,58.3,51.8,29.85,North,0,0.0,0.0,79,0.00,,,0.00,WUHU216HW,2013-08-31 13:42:00,
2013-08-31 06:47:00,58.1,51.7,29.85,North,0,0.0,0.0,79,0.00,,,0.00,WUHU216HW,2013-08-31 13:47:00,
2013-08-31 06:52:00,58.3,51.8,29.85,North,0,0.0,0.0,79,0.00,,,0.00,WUHU216HW,2013-08-31 13:52:00,
2013-08-31 06:57:00,58.1,52.0,29.85,North,0,0.0,0.0,80,0.00,,,0.00,WUHU216HW,2013-08-31 13:57:00,
2013-08-31 07:02:00,58.1,52.0,29.85,North,0,0.0,0.0,80,0.00,,,0.00,WUHU216HW,2013-08-31 14:02:00,
2013-08-31 07:07:00,58.1,52.0,29.85,North,0,0.0,0.0,80,0.00,,,0.00,WUHU216HW,2013-08-31 14:07:00,
2013-08-31 07:12:00,58.1,52.0,29.85,North,0,0.0,0.0,80,0.00,,,0.00,WUHU216HW,2013-08-31 14:12:00,
2013-08-31 07:17:00,58.1,52.0,29.85,North,0,0.0,0.0,80,0.00,,,0.00,WUHU216HW,2013-08-31 14:17:00,
2013-08-31 07:22:00,58.1,52.0,29.85,North,0,0.0,0.0,80,0.00,,,0.00,WUHU216HW,2013-08-31 14:22:00,
2013-08-31 07:27:00,58.3,52.2,29.85,North,0,0.0,0.0,80,0.00,,,0.00,WUHU216HW,2013-08-31 14:27:00,
2013-08-31 07:32:00,58.3,52.2,29.85,North,0,0.0,0.0,80,0.00,,,0.00,WUHU216HW,2013-08-31 14:32:00,
2013-08-31 07:37:00,58.5,52.4,29.85,North,0,0.0,0.0,80,0.00,,,0.00,WUHU216HW,2013-08-31 14:37:00,
2013-08-31 07:42:00,58.7,52.6,29.85,North,0,0.0,0.0,80,0.00,,,0.00,WUHU216HW,2013-08-31 14:42:00,
2013-08-31 07:47:00,58.9,53.1,29.85,North,0,0.0,0.0,81,0.00,,,0.00,WUHU216HW,2013-08-31 14:47:00,
2013-08-31 07:52:00,59.2,53.5,29.85,North,0,0.0,0.0,81,0.00,,,0.00,WUHU216HW,2013-08-31 14:52:00,
2013-08-31 07:57:00,59.4,53.7,29.85,North,0,0.0,0.0,81,0.00,,,0.00,WUHU216HW,2013-08-31 14:57:00,
2013-08-31 08:02:00,59.8,54.0,29.86,North,0,0.0,0.0,81,0.00,,,0.00,WUHU216HW,2013-08-31 15:02:00,
2013-08-31 08:08:00,60.1,54.4,29.85,North,0,0.0,0.0,81,0.00,,,0.00,WUHU216HW,2013-08-31 15:08:00,
2013-08-31 08:13:00,60.5,54.7,29.85,North,0,0.0,0.0,81,0.00,,,0.00,WUHU216HW,2013-08-31 15:13:00,
2013-08-31 08:18:00,60.7,54.9,29.85,North,0,0.0,0.0,81,0.00,,,0.00,WUHU216HW,2013-08-31 15:18:00,
2013-08-31 08:23:00,61.0,55.2,29.86,North,0,0.0,0.0,81,0.00,,,0.00,WUHU216HW,2013-08-31 15:23:00,
2013-08-31 08:28:00,61.4,55.5,29.86,North,0,0.0,0.0,81,0.00,,,0.00,WUHU216HW,2013-08-31 15:28:00,
2013-08-31 08:33:00,61.7,55.9,29.86,North,0,0.0,0.0,81,0.00,,,0.00,WUHU216HW,2013-08-31 15:33:00,
2013-08-31 08:38:00,62.1,55.9,29.86,North,0,0.0,0.0,80,0.00,,,0.00,WUHU216HW,2013-08-31 15:38:00,
2013-08-31 08:43:00,62.5,55.8,29.86,North,0,0.0,0.0,79,0.00,,,0.00,WUHU216HW,2013-08-31 15:43:00,
2013-08-31 08:48:00,62.8,56.2,29.85,North,0,0.0,0.0,79,0.00,,,0.00,WUHU216HW,2013-08-31 15:48:00,
2013-08-31 08:53:00,63.2,56.5,29.86,North,0,0.0,0.0,79,0.00,,,0.00,WUHU216HW,2013-08-31 15:53:00,
2013-08-31 08:58:00,63.5,57.2,29.86,North,0,0.0,0.0,80,0.00,,,0.00,WUHU216HW,2013-08-31 15:58:00,
2013-08-31 09:03:00,64.1,57.4,29.86,North,0,0.0,0.0,79,0.00,,,0.00,WUHU216HW,2013-08-31 16:03:00,
2013-08-31 09:08:00,64.3,57.2,29.86,North,0,0.0,0.0,78,0.00,,,0.00,WUHU216HW,2013-08-31 16:08:00,
2013-08-31 09:13:00,64.6,57.3,29.86,North,0,0.0,0.0,77,0.00,,,0.00,WUHU216HW,2013-08-31 16:13:00,
2013-08-31 09:18:00,65.0,57.6,29.86,North,0,0.0,0.0,77,0.00,,,0.00,WUHU216HW,2013-08-31 16:18:00,
2013-08-31 09:23:00,65.3,57.6,29.86,North,0,0.0,0.0,76,0.00,,,0.00,WUHU216HW,2013-08-31 16:23:00,
2013-08-31 09:28:00,65.7,57.9,29.86,North,0,0.0,0.0,76,0.00,,,0.00,WUHU216HW,2013-08-31 16:28:00,
2013-08-31 09:33:00,66.1,57.9,29.86,North,0,0.0,0.0,75,0.00,,,0.00,WUHU216HW,2013-08-31 16:33:00,
2013-08-31 09:38:00,66.4,57.9,29.85,North,0,0.0,0.0,74,0.00,,,0.00,WUHU216HW,2013-08-31 16:38:00,
2013-08-31 09:43:00,67.0,58.4,29.85,North,0,0.0,0.0,74,0.00,,,0.00,WUHU216HW,2013-08-31 16:43:00,
2013-08-31 09:48:00,67.3,58.4,29.86,North,0,0.0,0.0,73,0.00,,,0.00,WUHU216HW,2013-08-31 16:48:00,
2013-08-31 09:53:00,67.7,58.3,29.86,North,0,0.0,0.0,72,0.00,,,0.00,WUHU216HW,2013-08-31 16:53:00,
2013-08-31 09:58:00,68.0,58.3,29.86,North,0,0.0,0.0,71,0.00,,,0.00,WUHU216HW,2013-08-31 16:58:00,
2013-08-31 10:03:00,68.4,58.3,29.86,North,0,0.0,0.0,70,0.00,,,0.00,WUHU216HW,2013-08-31 17:03:00,
2013-08-31 10:08:00,68.9,58.8,29.85,North,0,0.0,0.0,70,0.00,,,0.00,WUHU216HW,2013-08-31 17:08:00,
2013-08-31 10:14:00,69.5,58.9,29.86,North,0,0.0,0.0,69,0.00,,,0.00,WUHU216HW,2013-08-31 17:14:00,
2013-08-31 10:19:00,70.0,58.5,29.85,North,0,0.0,0.0,67,0.00,,,0.00,WUHU216HW,2013-08-31 17:19:00,
2013-08-31 10:24:00,70.6,59.1,29.85,North,0,0.0,0.0,67,0.00,,,0.00,WUHU216HW,2013-08-31 17:24:00,
2013-08-31 10:29:00,71.3,59.3,29.86,North,0,0.0,0.0,66,0.00,,,0.00,WUHU216HW,2013-08-31 17:29:00,
2013-08-31 10:34:00,71.6,59.7,29.86,North,0,0.0,0.0,66,0.00,,,0.00,WUHU216HW,2013-08-31 17:34:00,
2013-08-31 10:39:00,72.4,59.5,29.86,North,0,0.0,0.0,64,0.00,,,0.00,WUHU216HW,2013-08-31 17:39:00,
2013-08-31 10:44:00,72.9,59.0,29.86,North,0,0.0,0.0,62,0.00,,,0.00,WUHU216HW,2013-08-31 17:44:00,
2013-08-31 10:49:00,73.4,59.6,29.86,North,0,0.0,0.0,62,0.00,,,0.00,WUHU216HW,2013-08-31 17:49:00,
2013-08-31 10:54:00,73.4,59.1,29.86,North,0,0.0,0.0,61,0.00,,,0.00,WUHU216HW,2013-08-31 17:54:00,
2013-08-31 10:59:00,74.0,59.2,29.86,North,0,0.0,0.0,60,0.00,,,0.00,WUHU216HW,2013-08-31 17:59:00,
2013-08-31 11:04:00,74.3,59.6,29.85,North,0,0.0,0.0,60,0.00,,,0.00,WUHU216HW,2013-08-31 18:04:00,
2013-08-31 11:09:00,74.5,59.2,29.85,North,0,0.0,0.0,59,0.00,,,0.00,WUHU216HW,2013-08-31 18:09:00,
2013-08-31 11:14:00,74.9,59.1,29.86,North,0,0.0,0.0,58,0.00,,,0.00,WUHU216HW,2013-08-31 18:14:00,
2013-08-31 11:19:00,75.6,59.8,29.85,North,0,0.0,0.0,58,0.00,,,0.00,WUHU216HW,2013-08-31 18:19:00,
2013-08-31 11:24:00,76.1,59.8,29.85,North,0,0.0,0.0,57,0.00,,,0.00,WUHU216HW,2013-08-31 18:24:00,
2013-08-31 11:29:00,76.5,59.1,29.85,North,0,0.0,0.0,55,0.00,,,0.00,WUHU216HW,2013-08-31 18:29:00,
2013-08-31 11:34:00,76.9,59.4,29.85,North,0,0.0,0.0,55,0.00,,,0.00,WUHU216HW,2013-08-31 18:34:00,
2013-08-31 11:39:00,77.4,60.0,29.85,North,0,0.0,0.0,55,0.00,,,0.00,WUHU216HW,2013-08-31 18:39:00,
2013-08-31 11:44:00,77.9,59.4,29.85,North,0,0.0,0.0,53,0.00,,,0.00,WUHU216HW,2013-08-31 18:44:00,
2013-08-31 11:49:00,78.7,59.6,29.85,North,0,0.0,0.0,52,0.00,,,0.00,WUHU216HW,2013-08-31 18:49:00,
2013-08-31 11:54:00,79.0,59.4,29.84,North,0,0.0,0.0,51,0.00,,,0.00,WUHU216HW,2013-08-31 18:54:00,
2013-08-31 11:59:00,79.6,59.3,29.84,North,0,0.0,0.0,50,0.00,,,0.00,WUHU216HW,2013-08-31 18:59:00,
2013-08-31 12:04:00,80.5,59.5,29.84,North,0,0.0,0.0,49,0.00,,,0.00,WUHU216HW,2013-08-31 19:04:00,
2013-08-31 12:09:00,81.2,59.0,29.84,North,0,0.0,0.0,47,0.00,,,0.00,WUHU216HW,2013-08-31 19:09:00,
2013-08-31 12:14:00,81.7,58.9,29.84,North,0,0.0,0.0,46,0.00,,,0.00,WUHU216HW,2013-08-31 19:14:00,
2013-08-31 12:20:00,82.3,56.3,29.84,North,0,0.0,0.0,41,0.00,,,0.00,WUHU216HW,2013-08-31 19:20:00,
2013-08-31 12:25:00,82.4,57.1,29.84,North,0,0.0,0.0,42,0.00,,,0.00,WUHU216HW,2013-08-31 19:25:00,
2013-08-31 12:30:00,82.8,56.7,29.83,North,0,0.0,0.0,41,0.00,,,0.00,WUHU216HW,2013-08-31 19:30:00,
2013-08-31 12:35:00,83.3,57.3,29.83,North,0,0.0,0.0,41,0.00,,,0.00,WUHU216HW,2013-08-31 19:35:00,
2013-08-31 12:40:00,83.5,56.0,29.83,North,0,0.0,0.0,39,0.00,,,0.00,WUHU216HW,2013-08-31 19:40:00,
2013-08-31 12:45:00,83.7,57.0,29.83,North,0,0.0,0.0,40,0.00,,,0.00,WUHU216HW,2013-08-31 19:45:00,
2013-08-31 12:50:00,84.4,56.0,29.83,North,0,0.0,0.0,38,0.00,,,0.00,WUHU216HW,2013-08-31 19:50:00,
2013-08-31 12:55:00,84.8,56.4,29.83,North,0,0.0,0.0,38,0.00,,,0.00,WUHU216HW,2013-08-31 19:55:00,
2013-08-31 13:00:00,85.1,56.6,29.83,North,0,0.0,0.0,38,0.00,,,0.00,WUHU216HW,2013-08-31 20:00:00,
2013-08-31 13:05:00,85.5,56.2,29.82,North,0,0.0,0.0,37,0.00,,,0.00,WUHU216HW,2013-08-31 20:05:00,
2013-08-31 13:10:00,85.7,54.0,29.82,North,0,0.0,0.0,34,0.00,,,0.00,WUHU216HW,2013-08-31 20:10:00,
2013-08-31 13:15:00,85.9,54.9,29.82,North,0,0.0,0.0,35,0.00,,,0.00,WUHU216HW,2013-08-31 20:15:00,
2013-08-31 13:20:00,86.2,52.8,29.82,North,0,0.0,0.0,32,0.00,,,0.00,WUHU216HW,2013-08-31 20:20:00,
2013-08-31 13:25:00,86.6,54.7,29.82,North,0,0.0,0.0,34,0.00,,,0.00,WUHU216HW,2013-08-31 20:25:00,
2013-08-31 13:30:00,86.9,55.8,29.82,North,0,0.0,0.0,35,0.00,,,0.00,WUHU216HW,2013-08-31 20:30:00,
2013-08-31 13:35:00,87.5,55.5,29.82,North,0,0.0,0.0,34,0.00,,,0.00,WUHU216HW,2013-08-31 20:35:00,
2013-08-31 13:41:00,87.7,54.8,29.82,North,0,0.0,0.0,33,0.00,,,0.00,WUHU216HW,2013-08-31 20:41:00,
2013-08-31 13:46:00,87.8,53.4,29.82,North,0,0.0,0.0,31,0.00,,,0.00,WUHU216HW,2013-08-31 20:46:00,
2013-08-31 13:51:00,88.2,55.3,29.81,North,0,0.0,0.0,33,0.00,,,0.00,WUHU216HW,2013-08-31 20:51:00,
2013-08-31 13:56:00,88.6,58.1,29.81,North,0,0.0,0.0,36,0.00,,,0.00,WUHU216HW,2013-08-31 20:56:00,
2013-08-31 14:01:00,88.6,57.3,29.81,North,0,0.0,0.0,35,0.00,,,0.00,WUHU216HW,2013-08-31 21:01:00,
2013-08-31 14:06:00,88.6,58.1,29.81,North,0,0.0,0.0,36,0.00,,,0.00,WUHU216HW,2013-08-31 21:06:00,
2013-08-31 14:11:00,88.2,57.7,29.81,North,0,0.0,0.0,36,0.00,,,0.00,WUHU216HW,2013-08-31 21:11:00,
2013-08-31 14:16:00,88.4,58.7,29.80,North,0,0.0,0.0,37,0.00,,,0.00,WUHU216HW,2013-08-31 21:16:00,
2013-08-31 14:21:00,88.6,58.1,29.80,North,0,0.0,0.0,36,0.00,,,0.00,WUHU216HW,2013-08-31 21:21:00,
2013-08-31 14:26:00,88.9,58.3,29.80,North,0,0.0,0.0,36,0.00,,,0.00,WUHU216HW,2013-08-31 21:26:00,
2013-08-31 14:31:00,89.5,58.8,29.80,North,0,0.0,0.0,36,0.00,,,0.00,WUHU216HW,2013-08-31 21:31:00,
2013-08-31 14:36:00,89.6,58.1,29.80,North,0,0.0,0.0,35,0.00,,,0.00,WUHU216HW,2013-08-31 21:36:00,
2013-08-31 14:41:00,89.6,58.1,29.79,North,0,0.0,0.0,35,0.00,,,0.00,WUHU216HW,2013-08-31 21:41:00,
2013-08-31 14:47:00,89.6,58.1,29.79,North,0,0.0,0.0,35,0.00,,,0.00,WUHU216HW,2013-08-31 21:47:00,
2013-08-31 14:52:00,89.6,58.1,29.79,North,0,0.0,0.0,35,0.00,,,0.00,WUHU216HW,2013-08-31 21:52:00,
2013-08-31 14:57:00,89.8,58.3,29.79,North,0,0.0,0.0,35,0.00,,,0.00,WUHU216HW,2013-08-31 21:57:00,
2013-08-31 15:02:00,90.0,58.5,29.79,North,0,0.0,0.0,35,0.00,,,0.00,WUHU216HW,2013-08-31 22:02:00,
2013-08-31 15:07:00,89.8,58.3,29.79,North,0,0.0,0.0,35,0.00,,,0.00,WUHU216HW,2013-08-31 22:07:00,
2013-08-31 15:12:00,89.6,57.3,29.78,North,0,0.0,0.0,34,0.00,,,0.00,WUHU216HW,2013-08-31 22:12:00,
2013-08-31 15:17:00,89.6,57.3,29.78,North,0,0.0,0.0,34,0.00,,,0.00,WUHU216HW,2013-08-31 22:17:00,
2013-08-31 15:22:00,89.5,58.0,29.78,North,0,0.0,0.0,35,0.00,,,0.00,WUHU216HW,2013-08-31 22:22:00,
2013-08-31 15:27:00,89.5,58.0,29.79,North,0,0.0,0.0,35,0.00,,,0.00,WUHU216HW,2013-08-31 22:27:00,
2013-08-31 15:32:00,89.3,57.9,29.78,North,0,0.0,0.0,35,0.00,,,0.00,WUHU216HW,2013-08-31 22:32:00,
2013-08-31 15:37:00,88.9,58.3,29.78,North,0,0.0,0.0,36,0.00,,,0.00,WUHU216HW,2013-08-31 22:37:00,
2013-08-31 15:42:00,88.7,58.1,29.78,North,0,0.0,0.0,36,0.00,,,0.00,WUHU216HW,2013-08-31 22:42:00,
2013-08-31 15:47:00,88.6,58.1,29.78,North,0,0.0,0.0,36,0.00,,,0.00,WUHU216HW,2013-08-31 22:47:00,
2013-08-31 15:52:00,88.4,57.9,29.78,North,0,0.0,0.0,36,0.00,,,0.00,WUHU216HW,2013-08-31 22:52:00,
2013-08-31 15:57:00,87.8,55.8,29.78,North,0,0.0,0.0,34,0.00,,,0.00,WUHU216HW,2013-08-31 22:57:00,
2013-08-31 16:03:00,87.5,56.4,29.77,North,0,0.0,0.0,35,0.00,,,0.00,WUHU216HW,2013-08-31 23:03:00,
2013-08-31 16:08:00,87.3,55.4,29.78,North,0,0.0,0.0,34,0.00,,,0.00,WUHU216HW,2013-08-31 23:08:00,
2013-08-31 16:13:00,86.8,55.7,29.78,North,0,0.0,0.0,35,0.00,,,0.00,WUHU216HW,2013-08-31 23:13:00,
2013-08-31 16:18:00,86.4,54.6,29.78,North,0,0.0,0.0,34,0.00,,,0.00,WUHU216HW,2013-08-31 23:18:00,
2013-08-31 16:23:00,86.0,55.9,29.77,North,0,0.0,0.0,36,0.00,,,0.00,WUHU216HW,2013-08-31 23:23:00,
2013-08-31 16:28:00,85.7,56.3,29.78,North,0,0.0,0.0,37,0.00,,,0.00,WUHU216HW,2013-08-31 23:28:00,
2013-08-31 16:33:00,85.5,56.2,29.77,North,0,0.0,0.0,37,0.00,,,0.00,WUHU216HW,2013-08-31 23:33:00,
2013-08-31 16:38:00,85.5,54.6,29.78,North,0,0.0,0.0,35,0.00,,,0.00,WUHU216HW,2013-08-31 23:38:00,
2013-08-31 16:43:00,85.3,54.5,29.77,North,0,0.0,0.0,35,0.00,,,0.00,WUHU216HW,2013-08-31 23:43:00,
2013-08-31 16:48:00,85.3,54.5,29.77,North,0,0.0,0.0,35,0.00,,,0.00,WUHU216HW,2013-08-31 23:48:00,
2013-08-31 16:53:00,85.3,54.5,29.77,North,0,0.0,0.0,35,0.00,,,0.00,WUHU216HW,2013-08-31 23:53:00,
2013-08-31 16:58:00,85.0,55.7,29.77,North,0,0.0,0.0,37,0.00,,,0.00,WUHU216HW,2013-08-31 23:58:00,
2013-08-31 17:03:00,84.8,55.5,29.78,North,0,0.0,0.0,37,0.00,,,0.00,WUHU216HW,2013-09-01 00:03:00,
2013-08-31 17:08:00,84.2,55.8,29.78,North,0,0.0,0.0,38,0.00,,,0.00,WUHU216HW,2013-09-01 00:08:00,
2013-08-31 17:14:00,84.2,55.8,29.78,North,0,0.0,0.0,38,0.00,,,0.00,WUHU216HW,2013-09-01 00:14:00,
2013-08-31 17:19:00,84.2,55.1,29.77,North,0,0.0,0.0,37,0.00,,,0.00,WUHU216HW,2013-09-01 00:19:00,
2013-08-31 17:24:00,83.9,54.7,29.77,North,0,0.0,0.0,37,0.00,,,0.00,WUHU216HW,2013-09-01 00:24:00,
2013-08-31 17:29:00,83.9,55.5,29.78,North,0,0.0,0.0,38,0.00,,,0.00,WUHU216HW,2013-09-01 00:29:00,
2013-08-31 17:34:00,83.7,54.5,29.77,North,0,0.0,0.0,37,0.00,,,0.00,WUHU216HW,2013-09-01 00:34:00,
2013-08-31 17:39:00,83.2,54.9,29.77,North,0,0.0,0.0,38,0.00,,,0.00,WUHU216HW,2013-09-01 00:39:00,
2013-08-31 17:44:00,82.8,54.5,29.77,North,0,0.0,0.0,38,0.00,,,0.00,WUHU216HW,2013-09-01 00:44:00,
2013-08-31 17:49:00,82.6,54.4,29.77,North,0,0.0,0.0,38,0.00,,,0.00,WUHU216HW,2013-09-01 00:49:00,
2013-08-31 17:54:00,82.4,54.2,29.78,North,0,0.0,0.0,38,0.00,,,0.00,WUHU216HW,2013-09-01 00:54:00,
2013-08-31 17:59:00,82.1,53.9,29.78,North,0,0.0,0.0,38,0.00,,,0.00,WUHU216HW,2013-09-01 00:59:00,
2013-08-31 18:04:00,81.9,53.7,29.78,North,0,0.0,0.0,38,0.00,,,0.00,WUHU216HW,2013-09-01 01:04:00,
2013-08-31 18:09:00,81.7,52.8,29.78,North,0,0.0,0.0,37,0.00,,,0.00,WUHU216HW,2013-09-01 01:09:00,
2013-08-31 18:14:00,81.4,53.3,29.78,North,0,0.0,0.0,38,0.00,,,0.00,WUHU216HW,2013-09-01 01:14:00,
2013-08-31 18:19:00,81.4,53.3,29.78,North,0,0.0,0.0,38,0.00,,,0.00,WUHU216HW,2013-09-01 01:19:00,
2013-08-31 18:25:00,81.0,53.7,29.78,North,0,0.0,0.0,39,0.00,,,0.00,WUHU216HW,2013-09-01 01:25:00,
2013-08-31 18:30:00,80.5,53.3,29.78,North,0,0.0,0.0,39,0.00,,,0.00,WUHU216HW,2013-09-01 01:30:00,
2013-08-31 18:35:00,79.9,54.2,29.78,North,0,0.0,0.0,41,0.00,,,0.00,WUHU216HW,2013-09-01 01:35:00,
2013-08-31 18:40:00,79.6,53.8,29.78,North,0,0.0,0.0,41,0.00,,,0.00,WUHU216HW,2013-09-01 01:40:00,
2013-08-31 18:45:00,78.8,53.8,29.78,North,0,0.0,0.0,42,0.00,,,0.00,WUHU216HW,2013-09-01 01:45:00,
2013-08-31 18:50:00,78.3,53.9,29.78,North,0,0.0,0.0,43,0.00,,,0.00,WUHU216HW,2013-09-01 01:50:00,
2013-08-31 18:55:00,77.6,53.9,29.78,North,0,0.0,0.0,44,0.00,,,0.00,WUHU216HW,2013-09-01 01:55:00,
2013-08-31 19:00:00,77.0,54.0,29.77,North,0,0.0,0.0,45,0.00,,,0.00,WUHU216HW,2013-09-01 02:00:00,
2013-08-31 19:05:00,76.7,54.3,29.77,North,0,0.0,0.0,46,0.00,,,0.00,WUHU216HW,2013-09-01 02:05:00,
2013-08-31 19:10:00,76.3,54.5,29.78,North,0,0.0,0.0,47,0.00,,,0.00,WUHU216HW,2013-09-01 02:10:00,
2013-08-31 19:15:00,76.0,54.3,29.77,North,0,0.0,0.0,47,0.00,,,0.00,WUHU216HW,2013-09-01 02:15:00,
2013-08-31 19:20:00,75.6,53.9,29.77,North,0,0.0,0.0,47,0.00,,,0.00,WUHU216HW,2013-09-01 02:20:00,
2013-08-31 19:25:00,75.2,54.2,29.78,North,0,0.0,0.0,48,0.00,,,0.00,WUHU216HW,2013-09-01 02:25:00,
2013-08-31 19:30:00,75.1,54.0,29.78,North,0,0.0,0.0,48,0.00,,,0.00,WUHU216HW,2013-09-01 02:30:00,
2013-08-31 19:35:00,74.9,53.8,29.78,North,0,0.0,0.0,48,0.00,,,0.00,WUHU216HW,2013-09-01 02:35:00,
2013-08-31 19:41:00,74.7,53.7,29.78,North,0,0.0,0.0,48,0.00,,,0.00,WUHU216HW,2013-09-01 02:41:00,
2013-08-31 19:46:00,74.5,53.6,29.78,North,0,0.0,0.0,48,0.00,,,0.00,WUHU216HW,2013-09-01 02:46:00,
2013-08-31 19:51:00,74.3,53.4,29.78,North,0,0.0,0.0,48,0.00,,,0.00,WUHU216HW,2013-09-01 02:51:00,
2013-08-31 19:56:00,74.0,53.0,29.78,North,0,0.0,0.0,48,0.00,,,0.00,WUHU216HW,2013-09-01 02:56:00,
2013-08-31 20:01:00,74.0,53.6,29.78,North,0,0.0,0.0,49,0.00,,,0.00,WUHU216HW,2013-09-01 03:01:00,
2013-08-31 20:06:00,73.8,53.4,29.79,North,0,0.0,0.0,49,0.00,,,0.00,WUHU216HW,2013-09-01 03:06:00,
2013-08-31 20:11:00,73.8,53.4,29.79,North,0,0.0,0.0,49,0.00,,,0.00,WUHU216HW,2013-09-01 03:11:00,
2013-08-31 20:16:00,73.4,53.0,29.79,North,0,0.0,0.0,49,0.00,,,0.00,WUHU216HW,2013-09-01 03:16:00,
2013-08-31 20:21:00,73.3,53.5,29.80,North,0,0.0,0.0,50,0.00,,,0.00,WUHU216HW,2013-09-01 03:21:00,
2013-08-31 20:26:00,72.9,54.2,29.80,North,0,0.0,0.0,52,0.00,,,0.00,WUHU216HW,2013-09-01 03:26:00,
2013-08-31 20:31:00,72.4,54.2,29.80,North,0,0.0,0.0,53,0.00,,,0.00,WUHU216HW,2013-09-01 03:31:00,
2013-08-31 20:36:00,72.2,54.0,29.80,North,0,0.0,0.0,53,0.00,,,0.00,WUHU216HW,2013-09-01 03:36:00,
2013-08-31 20:41:00,72.0,54.4,29.80,North,0,0.0,0.0,54,0.00,,,0.00,WUHU216HW,2013-09-01 03:41:00,
2013-08-31 20:47:00,71.8,54.2,29.80,North,0,0.0,0.0,54,0.00,,,0.00,WUHU216HW,2013-09-01 03:47:00,
2013-08-31 20:52:00,71.6,54.5,29.80,North,0,0.0,0.0,55,0.00,,,0.00,WUHU216HW,2013-09-01 03:52:00,
2013-08-31 20:57:00,71.3,54.7,29.81,North,0,0.0,0.0,56,0.00,,,0.00,WUHU216HW,2013-09-01 03:57:00,
2013-08-31 21:01:00,71.1,54.5,29.81,North,0,0.0,0.0,56,0.00,,,0.00,WUHU216HW,2013-09-01 04:01:00,
2013-08-31 21:02:00,71.1,54.5,29.81,North,0,0.0,0.0,56,0.00,,,0.00,WUHU216HW,2013-09-01 04:02:00,
2013-08-31 21:04:00,70.9,54.4,29.81,North,0,0.0,0.0,56,0.00,,,0.00,WUHU216HW,2013-09-01 04:04:00,
2013-08-31 21:06:00,70.9,54.4,29.81,North,0,0.0,0.0,56,0.00,,,0.00,WUHU216HW,2013-09-01 04:06:00,
2013-08-31 21:11:00,70.9,54.4,29.81,North,0,0.0,0.0,56,0.00,,,0.00,WUHU216HW,2013-09-01 04:11:00,
2013-08-31 21:16:00,70.7,54.7,29.81,North,0,0.0,0.0,57,0.00,,,0.00,WUHU216HW,2013-09-01 04:16:00,
2013-08-31 21:21:00,70.6,55.1,29.81,North,0,0.0,0.0,58,0.00,,,0.00,WUHU216HW,2013-09-01 04:21:00,
2013-08-31 21:26:00,70.4,54.5,29.81,North,0,0.0,0.0,57,0.00,,,0.00,WUHU216HW,2013-09-01 04:26:00,
2013-08-31 21:31:00,70.2,54.3,29.81,North,0,0.0,0.0,57,0.00,,,0.00,WUHU216HW,2013-09-01 04:31:00,
2013-08-31 21:36:00,70.2,54.7,29.82,North,0,0.0,0.0,58,0.00,,,0.00,WUHU216HW,2013-09-01 04:36:00,
2013-08-31 21:41:00,70.0,54.6,29.82,North,0,0.0,0.0,58,0.00,,,0.00,WUHU216HW,2013-09-01 04:41:00,
2013-08-31 21:46:00,69.8,54.9,29.82,North,0,0.0,0.0,59,0.00,,,0.00,WUHU216HW,2013-09-01 04:46:00,
2013-08-31 21:51:00,69.7,55.3,29.82,North,0,0.0,0.0,60,0.00,,,0.00,WUHU216HW,2013-09-01 04:51:00,
2013-08-31 21:57:00,69.5,55.5,29.82,North,0,0.0,0.0,61,0.00,,,0.00,WUHU216HW,2013-09-01 04:57:00,
2013-08-31 22:02:00,69.5,55.5,29.82,North,0,0.0,0.0,61,0.00,,,0.00,WUHU216HW,2013-09-01 05:02:00,
2013-08-31 22:07:00,69.3,55.7,29.82,North,0,0.0,0.0,62,0.00,,,0.00,WUHU216HW,2013-09-01 05:07:00,
2013-08-31 22:12:00,69.3,55.7,29.82,North,0,0.0,0.0,62,0.00,,,0.00,WUHU216HW,2013-09-01 05:12:00,
2013-08-31 22:17:00,69.3,55.7,29.82,North,0,0.0,0.0,62,0.00,,,0.00,WUHU216HW,2013-09-01 05:17:00,
2013-08-31 22:22:00,69.3,55.7,29.82,North,0,0.0,0.0,62,0.00,,,0.00,WUHU216HW,2013-09-01 05:22:00,
2013-08-31 22:27:00,69.1,55.5,29.82,North,0,0.0,0.0,62,0.00,,,0.00,WUHU216HW,2013-09-01 05:27:00,
2013-08-31 22:32:00,69.1,55.5,29.82,North,0,0.0,0.0,62,0.00,,,0.00,WUHU216HW,2013-09-01 05:32:00,
2013-08-31 22:37:00,68.9,55.8,29.82,North,0,0.0,0.0,63,0.00,,,0.00,WUHU216HW,2013-09-01 05:37:00,
2013-08-31 22:42:00,68.8,56.1,29.82,North,0,0.0,0.0,64,0.00,,,0.00,WUHU216HW,2013-09-01 05:42:00,
2013-08-31 22:47:00,68.6,55.9,29.82,North,0,0.0,0.0,64,0.00,,,0.00,WUHU216HW,2013-09-01 05:47:00,
2013-08-31 22:52:00,68.4,55.7,29.82,North,0,0.0,0.0,64,0.00,,,0.00,WUHU216HW,2013-09-01 05:52:00,
2013-08-31 22:57:00,68.4,56.2,29.82,North,0,0.0,0.0,65,0.00,,,0.00,WUHU216HW,2013-09-01 05:57:00,
2013-08-31 23:02:00,68.2,56.0,29.82,North,0,0.0,0.0,65,0.00,,,0.00,WUHU216HW,2013-09-01 06:02:00,
2013-08-31 23:08:00,68.0,55.8,29.82,North,0,0.0,0.0,65,0.00,,,0.00,WUHU216HW,2013-09-01 06:08:00,
2013-08-31 23:13:00,68.0,55.8,29.82,North,0,0.0,0.0,65,0.00,,,0.00,WUHU216HW,2013-09-01 06:13:00,
2013-08-31 23:18:00,67.7,55.4,29.82,North,0,0.0,0.0,65,0.00,,,0.00,WUHU216HW,2013-09-01 06:18:00,
2013-08-31 23:23:00,67.7,55.9,29.82,North,0,0.0,0.0,66,0.00,,,0.00,WUHU216HW,2013-09-01 06:23:00,
2013-08-31 23:28:00,67.5,55.7,29.82,North,0,0.0,0.0,66,0.00,,,0.00,WUHU216HW,2013-09-01 06:28:00,
2013-08-31 23:33:00,67.3,55.5,29.82,North,0,0.0,0.0,66,0.00,,,0.00,WUHU216HW,2013-09-01 06:33:00,
2013-08-31 23:38:00,67.1,55.4,29.82,North,0,0.0,0.0,66,0.00,,,0.00,WUHU216HW,2013-09-01 06:38:00,
2013-08-31 23:43:00,67.0,55.2,29.82,North,0,0.0,0.0,66,0.00,,,0.00,WUHU216HW,2013-09-01 06:43:00,
2013-08-31 23:48:00,66.8,55.4,29.82,North,0,0.0,0.0,67,0.00,,,0.00,WUHU216HW,2013-09-01 06:48:00,
2013-08-31 23:53:00,66.8,55.4,29.82,North,0,0.0,0.0,67,0.00,,,0.00,WUHU216HW,2013-09-01 06:53:00,
2013-08-31 23:58:00,66.6,55.3,29.82,North,0,0.0,0.0,67,0.00,,,0.00,WUHU216HW,2013-09-01 06:58:00,